• In Romania
  • List of Countries
  • For 7 days
  • Water Temperature
  • Satellite Maps
  • Weather Map
  • Weather Widgets
  • user-avatar
    Login

    Hourly Weather Eruslanovka

    Today, 21 September, Friday

    Time Temperature Precipitation Wind Pressure Humidity
    00:00 +18°C° 0 mm 1 mps 734 mmHg 59%
    01:00 +18°C° 0 mm 1 mps 734 mmHg 60%
    02:00 +18°C° 0 mm 1 mps 734 mmHg 61%
    03:00 +16°C° 0 mm 1 mps 734 mmHg 62%
    04:00 +16°C° 0 mm 1 mps 734 mmHg 63%
    05:00 +16°C° 0 mm 1 mps 734 mmHg 63%
    06:00 +16°C° 0 mm 1 mps 734 mmHg 64%
    07:00 +19°C° 0 mm 1 mps 734 mmHg 58%
    08:00 +21°C° 0 mm 1 mps 734 mmHg 52%
    09:00 +23°C° 0 mm 1 mps 734 mmHg 46%
    10:00 +25°C° 0 mm 1 mps 734 mmHg 43%
    11:00 +26°C° 0 mm 2 mps 734 mmHg 39%
    12:00 +27°C° 0 mm 3 mps 734 mmHg 36%
    13:00 +27°C° 0 mm 3 mps 734 mmHg 35%
    14:00 +28°C° 0 mm 3 mps 734 mmHg 34%
    15:00 +28°C° 0 mm 3 mps 733 mmHg 33%
    16:00 +26°C° 0 mm 3 mps 734 mmHg 37%
    17:00 +25°C° 0 mm 2 mps 734 mmHg 41%
    18:00 +23°C° 0 mm 2 mps 734 mmHg 45%
    19:00 +21°C° 0 mm 2 mps 734 mmHg 47%
    20:00 +20°C° 0 mm 2 mps 734 mmHg 49%
    21:00 +19°C° 0 mm 2 mps 734 mmHg 51%
    22:00 +19°C° 0 mm 2 mps 734 mmHg 53%
    23:00 +19°C° 0 mm 1 mps 734 mmHg 54%

    Tomorrow, 22 September, Saturday

    Time Temperature Precipitation Wind Pressure Humidity
    00:00 +19°C° 0 mm 1 mps 734 mmHg 55%
    01:00 +19°C° 0 mm 1 mps 734 mmHg 56%
    02:00 +18°C° 0 mm 1 mps 733 mmHg 57%
    03:00 +18°C° 0 mm 1 mps 733 mmHg 58%
    04:00 +18°C° 0 mm 1 mps 733 mmHg 58%
    05:00 +18°C° 0 mm 1 mps 733 mmHg 59%
    06:00 +16°C° 0 mm 1 mps 733 mmHg 59%
    07:00 +19°C° 0 mm 2 mps 734 mmHg 54%
    08:00 +21°C° 0 mm 3 mps 734 mmHg 49%
    09:00 +24°C° 0 mm 3 mps 734 mmHg 43%
    10:00 +25°C° 0 mm 4 mps 734 mmHg 41%
    11:00 +26°C° 0 mm 5 mps 734 mmHg 38%
    12:00 +28°C° 0 mm 6 mps 734 mmHg 35%
    13:00 +28°C° 0 mm 6 mps 733 mmHg 35%
    14:00 +28°C° 0 mm 6 mps 733 mmHg 35%
    15:00 +28°C° 0 mm 6 mps 733 mmHg 34%
    16:00 +27°C° 0 mm 5 mps 733 mmHg 38%
    17:00 +25°C° 0 mm 4 mps 733 mmHg 42%
    18:00 +24°C° 0 mm 3 mps 733 mmHg 46%
    19:00 +22°C° 0 mm 4 mps 733 mmHg 50%
    20:00 +21°C° 0 mm 4 mps 733 mmHg 54%
    21:00 +20°C° 0 mm 4 mps 733 mmHg 59%
    22:00 +19°C° 0 mm 4 mps 733 mmHg 63%
    23:00 +18°C° 0 mm 4 mps 733 mmHg 68%

    Day after tomorrow, 23 September, Sunday

    Time Temperature Precipitation Wind Pressure Humidity
    00:00 +18°C° 0 mm 3 mps 733 mmHg 72%
    01:00 +17°C° 0 mm 3 mps 733 mmHg 75%
    02:00 +17°C° 0 mm 3 mps 733 mmHg 77%
    03:00 +17°C° 0 mm 3 mps 733 mmHg 79%
    04:00 +16°C° 0 mm 2 mps 733 mmHg 80%
    05:00 +16°C° 0 mm 2 mps 733 mmHg 81%
    06:00 +16°C° 0 mm 2 mps 732 mmHg 82%
    07:00 +18°C° 0 mm 2 mps 733 mmHg 75%
    08:00 +20°C° 0 mm 2 mps 733 mmHg 68%
    09:00 +23°C° 0 mm 2 mps 733 mmHg 61%
    10:00 +24°C° 0 mm 2 mps 732 mmHg 55%
    11:00 +25°C° 0 mm 2 mps 732 mmHg 50%
    12:00 +27°C° 0 mm 2 mps 732 mmHg 45%
    13:00 +27°C° 0 mm 2 mps 732 mmHg 44%
    14:00 +28°C° 0 mm 2 mps 731 mmHg 42%
    15:00 +28°C° 0 mm 2 mps 731 mmHg 41%
    16:00 +27°C° 0.1 mm 2 mps 731 mmHg 46%
    17:00 +25°C° 0.1 mm 1 mps 731 mmHg 50%
    18:00 +24°C° 0.1 mm 1 mps 731 mmHg 55%
    19:00 +23°C° 1 mm 2 mps 731 mmHg 62%
    20:00 +21°C° 1 mm 3 mps 732 mmHg 69%
    21:00 +20°C° 1 mm 4 mps 732 mmHg 76%
    22:00 +19°C° 0.2 mm 4 mps 732 mmHg 78%
    23:00 +19°C° 0.2 mm 4 mps 732 mmHg 80%

    24 September, Monday

    Time Temperature Precipitation Wind Pressure Humidity
    00:00 +19°C° 0.2 mm 3 mps 732 mmHg 82%
    01:00 +18°C° 0 mm 4 mps 732 mmHg 82%
    02:00 +18°C° 0 mm 4 mps 732 mmHg 83%
    03:00 +17°C° 0 mm 4 mps 732 mmHg 83%
    04:00 +16°C° 0.2 mm 5 mps 733 mmHg 83%
    05:00 +16°C° 0.2 mm 5 mps 733 mmHg 84%
    06:00 +15°C° 0.2 mm 5 mps 734 mmHg 84%
    07:00 +15°C° 0.1 mm 5 mps 734 mmHg 82%
    08:00 +15°C° 0.1 mm 5 mps 734 mmHg 79%
    09:00 +14°C° 0.1 mm 5 mps 734 mmHg 77%
    10:00 +15°C° 0 mm 5 mps 734 mmHg 67%
    11:00 +18°C° 0 mm 4 mps 734 mmHg 57%
    12:00 +19°C° 0 mm 4 mps 734 mmHg 47%
    13:00 +19°C° 0 mm 3 mps 734 mmHg 45%
    14:00 +20°C° 0 mm 3 mps 734 mmHg 42%
    15:00 +20°C° 0 mm 2 mps 734 mmHg 40%
    16:00 +19°C° 0 mm 2 mps 734 mmHg 42%
    17:00 +18°C° 0 mm 2 mps 733 mmHg 45%
    18:00 +17°C° 0 mm 2 mps 733 mmHg 48%
    19:00 +17°C° 0 mm 2 mps 733 mmHg 52%
    20:00 +16°C° 0 mm 2 mps 733 mmHg 55%
    21:00 +15°C° 0 mm 2 mps 733 mmHg 59%
    22:00 +15°C° 0 mm 2 mps 732 mmHg 60%
    23:00 +14°C° 0 mm 2 mps 732 mmHg 61%

    25 September, Tuesday

    Time Temperature Precipitation Wind Pressure Humidity
    00:00 +14°C° 0 mm 2 mps 731 mmHg 62%
    01:00 +14°C° 0 mm 2 mps 731 mmHg 63%
    02:00 +14°C° 0 mm 2 mps 731 mmHg 64%
    03:00 +14°C° 0 mm 2 mps 730 mmHg 65%
    04:00 +14°C° 0 mm 1 mps 731 mmHg 64%
    05:00 +14°C° 0 mm 1 mps 731 mmHg 64%
    06:00 +14°C° 0 mm 1 mps 731 mmHg 63%
    07:00 +16°C° 0 mm 1 mps 731 mmHg 58%
    08:00 +19°C° 0 mm 1 mps 731 mmHg 53%
    09:00 +21°C° 0 mm 1 mps 731 mmHg 48%
    10:00 +22°C° 0 mm 1 mps 731 mmHg 45%
    11:00 +24°C° 0 mm 1 mps 731 mmHg 43%
    12:00 +25°C° 0 mm 2 mps 731 mmHg 40%
    13:00 +26°C° 0 mm 2 mps 730 mmHg 39%
    14:00 +26°C° 0 mm 2 mps 730 mmHg 38%
    15:00 +26°C° 0 mm 2 mps 730 mmHg 37%
    16:00 +25°C° 0 mm 2 mps 731 mmHg 43%
    17:00 +23°C° 0 mm 2 mps 731 mmHg 49%
    18:00 +20°C° 0 mm 2 mps 732 mmHg 55%
    19:00 +19°C° 0 mm 2 mps 732 mmHg 61%
    20:00 +17°C° 0 mm 3 mps 732 mmHg 68%
    21:00 +16°C° 0 mm 3 mps 733 mmHg 74%
    22:00 +14°C° 0 mm 3 mps 733 mmHg 74%
    23:00 +13°C° 0 mm 3 mps 733 mmHg 73%

    26 September, Wednesday

    Time Temperature Precipitation Wind Pressure Humidity
    00:00 +14°C° 0 mm 2 mps 733 mmHg 73%
    01:00 +13°C° 0 mm 2 mps 733 mmHg 72%
    02:00 +13°C° 0 mm 2 mps 734 mmHg 71%
    03:00 +13°C° 0 mm 2 mps 734 mmHg 70%
    04:00 +13°C° 0 mm 2 mps 734 mmHg 71%
    05:00 +12°C° 0 mm 2 mps 734 mmHg 72%
    06:00 +12°C° 0 mm 2 mps 735 mmHg 73%
    07:00 +13°C° 0 mm 2 mps 735 mmHg 71%
    08:00 +13°C° 0 mm 2 mps 735 mmHg 69%
    09:00 +14°C° 0 mm 2 mps 735 mmHg 67%
    10:00 +14°C° 0 mm 2 mps 735 mmHg 66%
    11:00 +14°C° 0 mm 2 mps 735 mmHg 65%
    12:00 +15°C° 0 mm 2 mps 735 mmHg 63%
    13:00 +15°C° 0 mm 2 mps 735 mmHg 62%
    14:00 +15°C° 0 mm 2 mps 735 mmHg 61%
    15:00 +16°C° 0 mm 2 mps 735 mmHg 61%
    16:00 +15°C° 0 mm 2 mps 736 mmHg 63%
    17:00 +15°C° 0 mm 2 mps 736 mmHg 65%
    18:00 +14°C° 0 mm 2 mps 736 mmHg 67%
    19:00 +14°C° 0 mm 2 mps 736 mmHg 69%
    20:00 +13°C° 0 mm 2 mps 736 mmHg 71%
    21:00 +13°C° 0 mm 2 mps 736 mmHg 73%
    22:00 +13°C° 0 mm 2 mps 736 mmHg 74%
    23:00 +13°C° 0 mm 2 mps 737 mmHg 76%
    Show more